Time,TemperatureF,DewpointF,PressureIn,WindDirection,WindDirectionDegrees,WindSpeedMPH,WindSpeedGustMPH,Humidity,HourlyPrecipIn,Conditions,Clouds,dailyrainin,SolarRadiationWatts/m^2,SoftwareType,DateUTC
2013-03-15 00:10:00,22.8,13.0,29.85,NE,56,4.0,10.0,67,0.00,,,0.00,0,weatherlink.com 1.10,2013-03-15 04:10:00,
2013-03-15 00:25:00,22.5,14.0,29.85,NE,44,3.0,6.0,69,0.00,,,0.00,0,weatherlink.com 1.10,2013-03-15 04:25:00,
2013-03-15 00:41:00,22.1,14.0,29.85,ENE,67,3.0,6.0,71,0.00,,,0.00,0,weatherlink.com 1.10,2013-03-15 04:41:00,
2013-03-15 00:56:00,22.0,14.0,29.86,NE,38,3.0,7.0,71,0.00,,,0.00,0,weatherlink.com 1.10,2013-03-15 04:56:00,
2013-03-15 01:11:00,22.1,14.0,29.86,NE,55,4.0,6.0,72,0.00,,,0.00,0,weatherlink.com 1.10,2013-03-15 05:11:00,
2013-03-15 01:26:00,22.4,14.0,29.86,NE,55,5.0,14.0,69,0.00,,,0.00,0,weatherlink.com 1.10,2013-03-15 05:26:00,
2013-03-15 01:41:00,22.5,14.0,29.86,NNE,30,6.0,8.0,69,0.00,,,0.00,0,weatherlink.com 1.10,2013-03-15 05:41:00,
2013-03-15 02:11:00,22.6,13.0,29.86,NE,54,8.0,13.0,68,0.00,,,0.00,0,weatherlink.com 1.10,2013-03-15 06:11:00,
2013-03-15 03:11:00,20.5,11.0,29.87,NE,54,7.0,14.0,67,0.00,,,0.00,0,weatherlink.com 1.10,2013-03-15 07:11:00,
2013-03-15 03:26:00,20.3,11.0,29.86,ENE,78,7.0,12.0,67,0.00,,,0.00,0,weatherlink.com 1.10,2013-03-15 07:26:00,
2013-03-15 03:41:00,20.1,11.0,29.86,NE,51,3.0,8.0,68,0.00,,,0.00,0,weatherlink.com 1.10,2013-03-15 07:41:00,
2013-03-15 03:56:00,19.9,11.0,29.86,NE,42,3.0,7.0,67,0.00,,,0.00,0,weatherlink.com 1.10,2013-03-15 07:56:00,
2013-03-15 04:11:00,19.6,10.0,29.86,ENE,71,3.0,5.0,67,0.00,,,0.00,0,weatherlink.com 1.10,2013-03-15 08:11:00,
2013-03-15 04:26:00,19.5,10.0,29.86,NE,51,2.0,5.0,67,0.00,,,0.00,0,weatherlink.com 1.10,2013-03-15 08:26:00,
2013-03-15 04:41:00,19.4,10.0,29.85,NE,35,4.0,13.0,67,0.00,,,0.00,0,weatherlink.com 1.10,2013-03-15 08:41:00,
2013-03-15 04:58:00,19.3,10.0,29.85,ENE,59,4.0,7.0,67,0.00,,,0.00,0,weatherlink.com 1.10,2013-03-15 08:58:00,
2013-03-15 05:11:00,19.5,9.0,29.85,ENE,60,3.0,7.0,65,0.00,,,0.00,0,weatherlink.com 1.10,2013-03-15 09:11:00,
2013-03-15 05:26:00,19.4,10.0,29.85,NE,53,0.0,4.0,66,0.00,,,0.00,0,weatherlink.com 1.10,2013-03-15 09:26:00,
2013-03-15 05:41:00,19.2,10.0,29.86,NE,54,0.0,4.0,66,0.00,,,0.00,0,weatherlink.com 1.10,2013-03-15 09:41:00,
2013-03-15 05:56:00,19.0,10.0,29.86,NE,52,1.0,5.0,67,0.00,,,0.00,0,weatherlink.com 1.10,2013-03-15 09:56:00,
2013-03-15 06:11:00,18.5,10.0,29.86,ENE,59,2.0,6.0,68,0.00,,,0.00,0,weatherlink.com 1.10,2013-03-15 10:11:00,
2013-03-15 06:26:00,18.2,9.0,29.86,NE,42,4.0,6.0,68,0.00,,,0.00,0,weatherlink.com 1.10,2013-03-15 10:26:00,
2013-03-15 06:41:00,18.1,10.0,29.86,NE,40,2.0,6.0,69,0.00,,,0.00,0,weatherlink.com 1.10,2013-03-15 10:41:00,
2013-03-15 07:11:00,18.1,9.0,29.86,NNE,29,0.0,4.0,68,0.00,,,0.00,11,weatherlink.com 1.10,2013-03-15 11:11:00,
2013-03-15 07:26:00,18.1,10.0,29.86,NNE,29,0.0,0.0,71,0.00,,,0.00,37,weatherlink.com 1.10,2013-03-15 11:26:00,
2013-03-15 07:41:00,18.3,11.0,29.86,NNE,29,0.0,0.0,72,0.00,,,0.00,40,weatherlink.com 1.10,2013-03-15 11:41:00,
2013-03-15 07:56:00,18.8,10.0,29.86,NNE,29,0.0,3.0,69,0.00,,,0.00,88,weatherlink.com 1.10,2013-03-15 11:56:00,
2013-03-15 08:11:00,20.3,10.0,29.86,NE,47,4.0,7.0,65,0.00,,,0.00,155,weatherlink.com 1.10,2013-03-15 12:11:00,
2013-03-15 08:26:00,20.7,9.0,29.86,ENE,61,3.0,7.0,62,0.00,,,0.00,199,weatherlink.com 1.10,2013-03-15 12:26:00,
2013-03-15 08:41:00,21.2,10.0,29.86,NE,56,4.0,9.0,62,0.00,,,0.00,246,weatherlink.com 1.10,2013-03-15 12:41:00,
2013-03-15 08:56:00,22.0,10.0,29.85,NE,53,1.0,4.0,60,0.00,,,0.00,292,weatherlink.com 1.10,2013-03-15 12:56:00,
2013-03-15 09:12:00,22.5,10.0,29.85,NE,53,0.0,3.0,58,0.00,,,0.00,338,weatherlink.com 1.10,2013-03-15 13:12:00,
2013-03-15 09:42:00,25.0,10.0,29.84,ENE,59,0.0,0.0,52,0.00,,,0.00,422,weatherlink.com 1.10,2013-03-15 13:42:00,
2013-03-15 09:57:00,26.2,11.0,29.83,ENE,65,4.0,7.0,53,0.00,,,0.00,471,weatherlink.com 1.10,2013-03-15 13:57:00,
2013-03-15 10:12:00,27.1,9.0,29.82,SSE,148,0.0,5.0,47,0.00,,,0.00,478,weatherlink.com 1.10,2013-03-15 14:12:00,
2013-03-15 10:27:00,26.8,9.0,29.82,ENE,67,2.0,5.0,47,0.00,,,0.00,220,weatherlink.com 1.10,2013-03-15 14:27:00,
2013-03-15 10:42:00,28.8,11.0,29.81,ENE,69,0.0,4.0,47,0.00,,,0.00,592,weatherlink.com 1.10,2013-03-15 14:42:00,
2013-03-15 10:57:00,28.9,9.0,29.80,SSE,152,1.0,8.0,43,0.00,,,0.00,635,weatherlink.com 1.10,2013-03-15 14:57:00,
2013-03-15 11:12:00,30.5,12.0,29.79,South,179,3.0,7.0,46,0.00,,,0.00,635,weatherlink.com 1.10,2013-03-15 15:12:00,
2013-03-15 11:27:00,31.5,10.0,29.78,SW,227,4.0,7.0,40,0.00,,,0.00,657,weatherlink.com 1.10,2013-03-15 15:27:00,
2013-03-15 11:42:00,33.1,10.0,29.77,South,189,4.0,13.0,39,0.00,,,0.00,693,weatherlink.com 1.10,2013-03-15 15:42:00,
2013-03-15 11:57:00,34.5,11.0,29.76,SE,134,2.0,9.0,37,0.00,,,0.00,649,weatherlink.com 1.10,2013-03-15 15:57:00,
2013-03-15 12:14:00,34.0,10.0,29.75,South,169,10.0,14.0,37,0.00,,,0.00,497,weatherlink.com 1.10,2013-03-15 16:14:00,
2013-03-15 12:27:00,35.1,10.0,29.74,SSE,160,4.0,8.0,35,0.00,,,0.00,613,weatherlink.com 1.10,2013-03-15 16:27:00,
2013-03-15 12:42:00,35.1,9.0,29.73,SSE,168,6.0,11.0,34,0.00,,,0.00,513,weatherlink.com 1.10,2013-03-15 16:42:00,
2013-03-15 12:58:00,35.8,9.0,29.72,WSW,241,9.0,13.0,33,0.00,,,0.00,601,weatherlink.com 1.10,2013-03-15 16:58:00,
2013-03-15 13:12:00,36.4,12.0,29.70,WSW,256,6.0,17.0,36,0.00,,,0.00,476,weatherlink.com 1.10,2013-03-15 17:12:00,
2013-03-15 13:27:00,37.4,14.0,29.69,WSW,242,14.0,16.0,38,0.00,,,0.00,485,weatherlink.com 1.10,2013-03-15 17:27:00,
2013-03-15 13:43:00,37.1,15.0,29.69,SW,234,15.0,15.0,40,0.00,,,0.00,482,weatherlink.com 1.10,2013-03-15 17:43:00,
2013-03-15 13:58:00,36.8,16.0,29.68,West,277,4.0,10.0,42,0.00,,,0.00,334,weatherlink.com 1.10,2013-03-15 17:58:00,
2013-03-15 14:13:00,36.2,17.0,29.67,WSW,244,1.0,17.0,45,0.00,,,0.00,260,weatherlink.com 1.10,2013-03-15 18:13:00,
2013-03-15 14:28:00,36.2,18.0,29.67,SW,232,4.0,13.0,48,0.00,,,0.00,323,weatherlink.com 1.10,2013-03-15 18:28:00,
2013-03-15 14:43:00,36.8,20.0,29.66,WSW,252,12.0,16.0,52,0.00,,,0.00,304,weatherlink.com 1.10,2013-03-15 18:43:00,
2013-03-15 14:58:00,36.9,21.0,29.65,NW,309,5.0,14.0,53,0.00,,,0.00,334,weatherlink.com 1.10,2013-03-15 18:58:00,
2013-03-15 15:13:00,38.0,23.0,29.65,West,261,11.0,23.0,54,0.00,,,0.00,499,weatherlink.com 1.10,2013-03-15 19:13:00,
2013-03-15 15:28:00,37.8,23.0,29.64,West,260,9.0,14.0,55,0.00,,,0.00,490,weatherlink.com 1.10,2013-03-15 19:28:00,
2013-03-15 15:43:00,37.6,23.0,29.63,SW,230,8.0,18.0,56,0.00,,,0.00,422,weatherlink.com 1.10,2013-03-15 19:43:00,
2013-03-15 15:58:00,37.2,24.0,29.63,WSW,243,8.0,19.0,59,0.00,,,0.00,287,weatherlink.com 1.10,2013-03-15 19:58:00,
2013-03-15 16:13:00,36.7,25.0,29.63,SW,222,10.0,17.0,64,0.00,,,0.00,220,weatherlink.com 1.10,2013-03-15 20:13:00,
2013-03-15 16:28:00,36.3,26.0,29.62,SW,215,7.0,15.0,66,0.00,,,0.00,162,weatherlink.com 1.10,2013-03-15 20:28:00,
2013-03-15 16:43:00,36.4,27.0,29.62,SSW,201,7.0,15.0,69,0.00,,,0.00,237,weatherlink.com 1.10,2013-03-15 20:43:00,
2013-03-15 16:58:00,36.2,27.0,29.62,WSW,242,6.0,15.0,70,0.00,,,0.00,102,weatherlink.com 1.10,2013-03-15 20:58:00,
2013-03-15 17:28:00,35.5,28.0,29.62,WSW,250,5.0,14.0,73,0.00,,,0.00,32,weatherlink.com 1.10,2013-03-15 21:28:00,
2013-03-15 17:43:00,35.1,28.0,29.62,WSW,246,4.0,5.0,75,0.00,,,0.00,23,weatherlink.com 1.10,2013-03-15 21:43:00,
2013-03-15 17:58:00,34.9,28.0,29.61,SW,230,5.0,7.0,76,0.00,,,0.00,12,weatherlink.com 1.10,2013-03-15 21:58:00,
2013-03-15 18:13:00,34.7,28.0,29.61,South,184,0.0,6.0,77,0.00,,,0.00,11,weatherlink.com 1.10,2013-03-15 22:13:00,
2013-03-15 18:29:00,34.4,29.0,29.61,SSW,192,1.0,7.0,79,0.00,,,0.00,7,weatherlink.com 1.10,2013-03-15 22:29:00,
2013-03-15 18:43:00,34.3,29.0,29.61,SSW,194,3.0,7.0,80,0.00,,,0.00,0,weatherlink.com 1.10,2013-03-15 22:43:00,
2013-03-15 18:58:00,34.1,29.0,29.61,SSW,211,6.0,9.0,82,0.00,,,0.00,0,weatherlink.com 1.10,2013-03-15 22:58:00,
2013-03-15 19:13:00,33.5,30.0,29.62,SSW,211,4.0,10.0,85,0.00,,,0.00,0,weatherlink.com 1.10,2013-03-15 23:13:00,
2013-03-15 19:28:00,33.3,30.0,29.61,SSW,206,0.0,7.0,86,0.00,,,0.00,0,weatherlink.com 1.10,2013-03-15 23:28:00,
2013-03-15 19:43:00,33.4,30.0,29.62,SW,214,0.0,7.0,86,0.00,,,0.00,0,weatherlink.com 1.10,2013-03-15 23:43:00,
2013-03-15 19:58:00,33.1,30.0,29.62,WSW,245,0.0,8.0,88,0.00,,,0.00,0,weatherlink.com 1.10,2013-03-15 23:58:00,
2013-03-15 20:13:00,32.5,30.0,29.62,WSW,244,0.0,0.0,90,0.00,,,0.00,0,weatherlink.com 1.10,2013-03-16 00:13:00,
2013-03-15 20:28:00,31.2,29.0,29.63,WSW,244,0.0,0.0,91,0.00,,,0.00,0,weatherlink.com 1.10,2013-03-16 00:28:00,
2013-03-15 20:43:00,30.6,29.0,29.63,WSW,246,4.0,4.0,92,0.00,,,0.00,0,weatherlink.com 1.10,2013-03-16 00:43:00,
2013-03-15 20:58:00,31.6,29.0,29.63,WSW,244,0.0,6.0,89,0.00,,,0.00,0,weatherlink.com 1.10,2013-03-16 00:58:00,
2013-03-15 21:13:00,31.6,28.0,29.63,WSW,244,0.0,2.0,87,0.00,,,0.00,0,weatherlink.com 1.10,2013-03-16 01:13:00,
2013-03-15 21:28:00,33.7,27.0,29.63,WNW,295,4.0,9.0,76,0.00,,,0.00,0,weatherlink.com 1.10,2013-03-16 01:28:00,
2013-03-15 21:43:00,34.2,26.0,29.64,NNW,341,0.0,8.0,71,0.00,,,0.00,0,weatherlink.com 1.10,2013-03-16 01:43:00,
2013-03-15 21:58:00,34.3,25.0,29.64,WNW,292,0.0,7.0,69,0.00,,,0.00,0,weatherlink.com 1.10,2013-03-16 01:58:00,
2013-03-15 22:13:00,34.7,25.0,29.64,NW,305,0.0,7.0,67,0.00,,,0.00,0,weatherlink.com 1.10,2013-03-16 02:13:00,
2013-03-15 22:28:00,34.9,25.0,29.65,NNE,14,0.0,8.0,66,0.00,,,0.00,0,weatherlink.com 1.10,2013-03-16 02:28:00,
2013-03-15 22:43:00,33.6,29.0,29.66,North,355,8.0,17.0,82,0.00,,,0.00,0,weatherlink.com 1.10,2013-03-16 02:43:00,
2013-03-15 22:58:00,31.9,28.0,29.67,NNW,331,2.0,8.0,85,0.00,,,0.00,0,weatherlink.com 1.10,2013-03-16 02:58:00,
2013-03-15 23:13:00,31.9,27.0,29.67,NNW,344,3.0,7.0,83,0.00,,,0.00,0,weatherlink.com 1.10,2013-03-16 03:13:00,
2013-03-15 23:28:00,32.0,27.0,29.68,NNW,346,4.0,11.0,82,0.00,,,0.00,0,weatherlink.com 1.10,2013-03-16 03:28:00,
2013-03-15 23:43:00,32.2,27.0,29.68,NNW,348,3.0,6.0,81,0.00,,,0.00,0,weatherlink.com 1.10,2013-03-16 03:43:00,
2013-03-15 23:58:00,32.1,27.0,29.69,NNE,24,7.0,11.0,81,0.00,,,0.00,0,weatherlink.com 1.10,2013-03-16 03:58:00,